Weather reports worldwide

Advertisment
Roma/Ciampino, Italy (16239): temperature & dewpoint: 17.10.2019 21:00:00 - 23.10.2019 21:00:00 (CEST)Roma/Ciampino, Italy (16239): wind speed: 17.10.2019 21:00:00 - 23.10.2019 21:00:00 (CEST)Roma/Ciampino, Italy (16239): wind direction: 17.10.2019 21:00:00 - 23.10.2019 21:00:00 (CEST)Roma/Ciampino, Italy (16239): reduced air pressure: 17.10.2019 21:00:00 - 23.10.2019 21:00:00 (CEST)Roma/Ciampino, Italy (16239): visibility: 17.10.2019 21:00:00 - 23.10.2019 21:00:00 (CEST)Roma/Ciampino, Italy (16239): precipitation: 17.10.2019 21:00:00 - 23.10.2019 21:00:00 (CEST)
Date & Time tt [°C] td [°C] ff [km/h] ff [kn] dd ppp [hPa] vv [km] rr [mm]
23.10.2019 21:00:00 20,0 10,0 9 5 SE - 10 -
23.10.2019 20:00:00 19,9 11,1 9 5 SSE 1017,9 10 -
23.10.2019 19:00:00 21,0 13,0 11 6 S - 10 -
23.10.2019 18:00:00 23,0 13,0 9 5 S - 10 -
23.10.2019 17:00:00 24,4 12,5 11 6 S 1017,2 10 0,0
23.10.2019 16:00:00 26,0 13,0 13 7 S - 10 -
23.10.2019 15:00:00 27,0 11,0 11 6 SSE - 10 -
23.10.2019 14:00:00 26,7 10,3 11 6 SSE 1018,0 10 -
23.10.2019 13:00:00 25,0 13,0 5 3 - - 10 -
23.10.2019 12:00:00 22,0 13,0 5 3 N - 10 -
23.10.2019 11:00:00 19,8 13,0 5 3 NNE 1019,9 10 0,0
23.10.2019 10:00:00 18,0 13,0 8 4 N - 10 -
23.10.2019 09:00:00 15,0 12,0 8 4 NE - 10 -
23.10.2019 08:00:00 14,6 11,7 5 3 E 1019,8 10 -
23.10.2019 07:00:00 15,0 12,0 8 4 NW - 10 -
23.10.2019 06:00:00 17,0 11,0 8 4 ESE - 10 -
23.10.2019 05:00:00 17,2 11,4 11 6 ESE 1019,3 10 0,0
23.10.2019 04:00:00 17,0 12,0 11 6 E - 10 -
23.10.2019 03:00:00 17,0 12,0 9 5 E - 10 -
23.10.2019 02:00:00 16,7 11,8 9 5 E 1019,9 10 -
23.10.2019 01:00:00 16,0 13,0 8 4 ESE - 10 -
23.10.2019 00:00:00 17,0 13,0 5 3 E - 10 -
22.10.2019 23:00:00 17,8 12,6 8 4 E 1020,2 10 0,0
22.10.2019 22:00:00 19,0 13,0 5 3 ENE - 10 -
22.10.2019 21:00:00 19,0 14,0 5 3 ESE - 10 -
22.10.2019 20:00:00 19,9 14,3 5 3 E 1020,3 10 -
22.10.2019 19:00:00 22,0 13,0 8 4 S - 10 -
22.10.2019 18:00:00 25,0 12,0 8 4 SSW - 10 -
22.10.2019 17:00:00 26,3 12,7 9 5 S 1019,8 10 0,0
22.10.2019 16:00:00 27,0 11,0 11 6 S - 10 -
22.10.2019 15:00:00 27,0 14,0 4 2 - - 10 -
22.10.2019 14:00:00 26,1 13,9 11 6 N 1020,5 10 -
22.10.2019 13:00:00 24,0 14,0 8 4 N - 10 -
22.10.2019 12:00:00 21,0 14,0 8 4 - - 10 -
22.10.2019 11:00:00 20,0 13,6 5 3 N 1022,2 10 0,0
22.10.2019 10:00:00 17,0 13,0 5 3 NW - 10 -
22.10.2019 09:00:00 15,0 13,0 8 4 N - 10 -
22.10.2019 08:00:00 15,0 11,9 5 3 NNE 1021,1 10 -
22.10.2019 07:00:00 15,0 12,0 13 7 NE - 10 -
22.10.2019 06:00:00 14,0 12,0 9 5 NNE - 10 -
22.10.2019 05:00:00 13,9 11,9 5 3 N 1021,4 10 0,0
22.10.2019 04:00:00 15,0 13,0 5 3 NE - 10 -
22.10.2019 03:00:00 16,0 13,0 4 2 - - 10 -
22.10.2019 02:00:00 15,4 12,3 5 3 N 1021,9 10 -
22.10.2019 01:00:00 16,0 13,0 5 3 ENE - 10 -
22.10.2019 00:00:00 17,0 13,0 5 3 E - 10 -
21.10.2019 23:00:00 17,0 12,5 5 3 E 1022,1 10 0,0
21.10.2019 22:00:00 18,0 12,0 4 2 - - 10 -
21.10.2019 21:00:00 19,0 13,0 8 4 E - 10 -
21.10.2019 20:00:00 19,8 13,0 8 4 E 1022,2 10 -
21.10.2019 19:00:00 21,0 15,0 8 4 S - 10 -
21.10.2019 18:00:00 24,0 14,0 11 6 S - 10 -
21.10.2019 17:00:00 24,9 14,5 13 7 S 1021,6 10 0,0
21.10.2019 16:00:00 26,0 14,0 15 8 S - 10 -
21.10.2019 15:00:00 26,0 14,0 13 7 SSE - 10 -
21.10.2019 14:00:00 26,0 13,8 13 7 SSE 1022,2 10 -
21.10.2019 13:00:00 25,0 14,0 13 7 S - 10 -
21.10.2019 12:00:00 24,0 14,0 4 2 - - 10 -
21.10.2019 11:00:00 21,5 14,7 8 4 NNW 1022,7 10 0,0
21.10.2019 10:00:00 19,0 15,0 5 3 NNW - 10 -
21.10.2019 09:00:00 18,0 14,0 5 3 E - 10 -
21.10.2019 08:00:00 15,6 12,8 2 1 - 1021,2 10 -
21.10.2019 07:00:00 16,0 13,0 8 4 ESE - 10 -
21.10.2019 06:00:00 15,0 12,0 4 2 - - 10 -
21.10.2019 05:00:00 15,8 12,8 8 4 ESE 1020,9 10 0,0
21.10.2019 04:00:00 16,0 13,0 8 4 E - 10 -
21.10.2019 03:00:00 15,0 14,0 8 4 E - 10 -
21.10.2019 02:00:00 15,8 13,7 2 1 - 1021,0 10 -
21.10.2019 01:00:00 16,0 15,0 4 2 - - 10 -
21.10.2019 00:00:00 17,0 16,0 4 2 - - 10 -
20.10.2019 23:00:00 17,7 14,8 4 2 - 1021,2 10 0,0
20.10.2019 22:00:00 20,0 15,0 8 4 SE - 10 -
20.10.2019 21:00:00 19,0 16,0 4 2 - - 10 -
20.10.2019 20:00:00 19,8 16,3 9 5 S 1019,9 10 -
20.10.2019 19:00:00 21,0 17,0 8 4 S - 10 -
20.10.2019 18:00:00 22,0 16,0 9 5 S - 10 -
20.10.2019 17:00:00 22,9 15,9 16 9 SSE 1018,9 10 0,0
20.10.2019 16:00:00 23,0 16,0 13 7 SSE - 10 -
20.10.2019 15:00:00 24,0 16,0 18 10 SSE - 10 -
20.10.2019 14:00:00 23,7 16,3 15 8 SSE 1019,6 10 -
20.10.2019 13:00:00 24,0 16,0 16 9 SSE - 10 -
20.10.2019 12:00:00 23,0 16,0 18 10 SSE - 10 -
20.10.2019 11:00:00 22,5 15,8 11 6 SSE 1020,1 10 0,0
20.10.2019 10:00:00 21,0 15,0 5 3 SSE - 10 -
20.10.2019 09:00:00 17,0 13,0 2 1 - - 10 -
20.10.2019 08:00:00 16,0 12,4 5 3 ENE 1019,0 10 -
20.10.2019 07:00:00 16,0 12,0 9 5 NE - 10 -
20.10.2019 06:00:00 13,0 11,0 5 3 N - 10 -
20.10.2019 05:00:00 14,8 12,0 5 3 E 1018,4 10 0,0
20.10.2019 04:00:00 15,0 11,0 8 4 E - 10 -
20.10.2019 03:00:00 14,0 11,0 9 5 E - 10 -
20.10.2019 02:00:00 13,5 10,5 5 3 E 1019,2 10 -
20.10.2019 01:00:00 14,0 11,0 9 5 E - 10 -
20.10.2019 00:00:00 15,0 12,0 5 3 E - 10 -
19.10.2019 23:00:00 15,3 12,1 8 4 ESE 1018,7 10 0,0
19.10.2019 22:00:00 18,0 13,0 9 5 SE - 10 -
19.10.2019 21:00:00 17,0 14,0 9 5 SSE - 10 -
19.10.2019 20:00:00 17,2 13,1 5 3 S 1018,3 10 -
19.10.2019 19:00:00 19,0 14,0 9 5 S - 10 -
19.10.2019 18:00:00 20,0 14,0 11 6 S - 10 -
19.10.2019 17:00:00 21,2 13,0 15 8 S 1017,7 10 0,0
19.10.2019 16:00:00 22,0 12,0 11 6 SSE - 10 -
19.10.2019 15:00:00 21,0 12,0 9 5 S - 10 -
19.10.2019 14:00:00 21,8 11,4 9 5 SE 1017,9 10 -
19.10.2019 13:00:00 22,0 12,0 9 5 S - 10 -
19.10.2019 12:00:00 20,0 13,0 11 6 SE - 10 -
19.10.2019 11:00:00 19,8 12,7 5 3 - 1018,8 10 0,0
19.10.2019 10:00:00 16,0 12,0 8 4 NW - 10 -
19.10.2019 09:00:00 15,0 12,0 2 1 - - 10 -
19.10.2019 08:00:00 12,6 10,7 4 2 - 1017,9 10 -
19.10.2019 07:00:00 13,0 11,0 4 2 - - 10 -
19.10.2019 06:00:00 13,0 11,0 5 3 E - 10 -
19.10.2019 05:00:00 13,4 10,8 4 2 - 1017,9 10 0,0
19.10.2019 04:00:00 14,0 11,0 8 4 E - 10 -
19.10.2019 03:00:00 14,0 11,0 8 4 E - 10 -
19.10.2019 02:00:00 14,0 11,2 9 5 E 1018,4 10 -
19.10.2019 01:00:00 15,0 12,0 9 5 E - 10 -
19.10.2019 00:00:00 15,0 12,0 8 4 E - 10 -
18.10.2019 23:00:00 14,9 12,0 9 5 E 1018,9 10 0,0
18.10.2019 22:00:00 15,0 12,0 9 5 ESE - 10 -
18.10.2019 21:00:00 16,0 12,0 5 3 ESE - 10 -
18.10.2019 20:00:00 16,0 12,5 5 3 SE 1018,5 10 -
18.10.2019 19:00:00 19,0 12,0 4 2 - - 10 -
18.10.2019 18:00:00 20,0 12,0 11 6 W - 10 -
18.10.2019 17:00:00 21,7 11,1 5 3 N 1018,0 10 0,0
18.10.2019 16:00:00 22,0 11,0 11 6 - - 10 -
18.10.2019 15:00:00 21,0 11,0 8 4 N - 10 -
18.10.2019 14:00:00 21,4 10,7 9 5 N 1018,9 10 -
18.10.2019 13:00:00 21,0 11,0 8 4 - - 10 -
18.10.2019 12:00:00 20,0 11,0 9 5 NW - 10 -
18.10.2019 11:00:00 18,6 10,5 5 3 N 1020,0 10 0,0
18.10.2019 10:00:00 16,0 10,0 5 3 N - 10 -
18.10.2019 09:00:00 14,0 10,0 4 2 - - 10 -
18.10.2019 08:00:00 11,4 8,6 5 3 NNE 1019,3 10 -
18.10.2019 07:00:00 13,0 8,0 8 4 E - 10 -
18.10.2019 06:00:00 12,0 8,0 8 4 NE - 10 -
18.10.2019 05:00:00 13,2 7,9 9 5 E 1019,4 - 0,0
18.10.2019 04:00:00 13,0 8,0 4 2 - - 10 -
18.10.2019 03:00:00 13,0 9,0 9 5 E - 10 -
18.10.2019 02:00:00 13,3 9,4 9 5 E 1020,1 10 -
18.10.2019 01:00:00 14,0 11,0 9 5 E - 10 -
18.10.2019 00:00:00 14,0 11,0 11 6 E - 10 -
17.10.2019 23:00:00 14,2 11,1 8 4 E 1020,5 10 0,0
17.10.2019 22:00:00 14,0 11,0 8 4 E - 10 -
17.10.2019 21:00:00 15,0 11,0 8 4 ESE - 10 -

tt = temperature
td = dewpoint
ff = wind speed
dd = wind direction
ppp = reduced air pressure
vv = visibility
rr = precipitation

Next stations